THORAD AGENA D DEB, 42497

Orbit data source: Space-Track

THORAD AGENA D DEB, 42497 is space debris in SSO originally from a launch on Wed, 08 Apr 1970 UTC launched from the Air Force Western Test Range (AFWTR). Debris objects in space refer to the collection of defunct objects orbiting the Earth. Examples of debris include non-operational satellites, rocket bodies, and fragments generated from explosions, collisions, or faulty payload assembly.

Loading next visibility...
Identifier
42497, 1970-025RB
Orbit
SSO
Country
Flag of USUS
Related business
Manufacturer
Unknown
Mission
Spacecraft
Bus & Motor
Unknown
Mass
Unknown
Launch date (UTC)
1970-04-08 (56 years ago)
Launch vehicle
Unknown
Launch site
Air Force Western Test Range (AFWTR)
Object type
Payload
Rocket body
Debris
Shape & HBR
Unknown shape, 0.1 m
Radar Cross Section
Small (<0.1 m²)

Expand to show TLE details & history
Last TLE update: 2 days ago

TLE from 2 days ago
0 THORAD AGENA D DEB
1 42497U 70025RB  25299.41838834  .00002457  00000-0  17332-2 0  9992
2 42497 100.0121 154.0938 0030123  51.1975 309.1869 13.98868438605386
Epoch: 2025-10-26T10:02Z
TLE epoch observation values (Epoch: 2025-10-26T10:02:28.752Z)
Latitude
0.00001°
Longitude
-31.56087°
Altitude
886.746 km
Speed
7.416 km/s
True Right ascension
10h 16m 22s
True Declination
0° 00' 00"
Sunlit
Object was in daylight at epoch
Visualization orbit readout
Latitude
Unknown
Longitude
Unknown
Altitude
Unknown
Speed
Unknown
Apparent Right ascension
Unknown
Apparent Declination
Unknown
Sunlit
N/A
Visualization observer readout
Local Sidereal Time
23:39:24
Azimuth
Unknown
Elevation
Unknown
Doppler factor
Unknown
Orbital elements
Apogee altitude
916.878 km
Perigee altitude
873.06 km
Semi-major axis
7,273.106 km
Eccentricity
0.00301
Inclination
100.0121°
RAAN
154.0938°
Arg. of periapsis
51.1975°
True anomaly
308.91871°
Mean anomaly
309.1869°
Eccentric anomaly
309.05287°
Mean motion
3.49916 °/min
Orbital period
102.88 mins
BSTAR
0.0017332
Loading maneuver chart data...
Computing Atmospheric mass density...

Documentation

Showing up to 5 results
|